Home   Weather   Fulda   Past weeks

Flag for Germany Past Weather in Fulda, Hesse, Germany — Yesterday and Last 2 Weeks

Now
45 °F

Overcast.


Feels Like: 41 °F
Forecast: 37 / 46 °F
Wind: 8 mph from Southwest

Location: Fritzlar

Current Time: Feb 25, 2017 at 5:42:35 pm

Latest Report: Feb 25, 2017 at 3:00 pm


Visibility: 22 mi

Pressure: 30.11 "Hg

Humidity: 58%

Dew Point: 31 °F

Location of FuldaLocation

Past Weather in Fulda — Graph

°F

Fulda Temperature Yesterday

Maximum temperature yesterday: 44 °F (at 3:00 pm)
Minimum temperature yesterday: 30 °F (at 11:00 pm)
Average temperature yesterday: 38 °F

High & Low Weather Summary for the Past Weeks

 TemperatureHumidityPressure
High53 °F (Feb 21, 3:00 pm)98% (Feb 17, 8:00 am)30.62 "Hg (Feb 17, 8:00 am)
Low22 °F (Feb 15, 8:00 am)41% (Feb 14, 3:00 pm)29.26 "Hg (Feb 23, 5:00 pm)
Average38 °F81%30.18 "Hg
* Reported Feb 10 3:00 pm — Feb 25 3:00 pm, Fulda, Weather by CustomWeather, © 2017

Note: Actual official high and low records may vary slightly from our data, if they occured in-between our weather recording intervals... More about our weather records

Advertising

Fulda Weather History for the Previous 24 Hours

Scroll right to see more
 ConditionsComfort  
Time TempWeatherWind HumidityBarometerVisibility
3:00 pm
Sat, Feb 25
45 °FOvercast.8 mph58%30.11 "Hg22 mi
2:00 pm44 °FOvercast.7 mph63%30.13 "Hg17 mi
12:00 pm38 °FOvercast.3 mph80%30.19 "Hg7 mi
11:00 am35 °FOvercast.3 mph88%30.21 "Hg6 mi
9:00 am29 °FOvercast.No wind94%30.23 "Hg6 mi
8:00 am27 °FOvercast.N/A94%30.22 "Hg6 mi
6:00 am24 °FPassing clouds.N/A94%30.19 "Hg9 mi
5:00 am27 °FPassing clouds.1 mph93%30.19 "Hg12 mi
3:00 am26 °FPassing clouds.1 mph94%30.18 "Hg16 mi
2:00 am27 °FClear.1 mph93%30.18 "Hg16 mi
12:00 am27 °FPassing clouds.N/A91%30.15 "Hg19 mi
11:00 pm
Fri, Feb 24
30 °FPassing clouds.1 mph89%30.13 "Hg25 mi
9:00 pm32 °FPassing clouds.1 mph84%30.09 "Hg25 mi
8:00 pm32 °FPassing clouds.1 mph88%30.07 "Hg25 mi
6:00 pm38 °FPassing clouds.1 mph70%30.00 "Hg25 mi
5:00 pm40 °FPartly sunny.3 mph67%29.97 "Hg25 mi
Weather by CustomWeather, © 2017

See weather overviewHow to use our weather pages